CSN2251 EGNX-EKBI

Flight info

Callsign CSN2251
Flight time 1h 23m
Altitude 37000
Route SAPCO Y53 DTY P166 BANTO P155 SOMVA DCT MAVAS DCT ANDIK N873 REXMI DCT GELBA
Aircraft B77W/H-SDE1E2E3FGHIJ2J3J4J5M1RWXY/LB1D1

Departure

Time 2026-05-08 06:33
Airport East Midlands Airport (EGNX)

Arrival

Time 2026-05-08 07:57
Airport Billund Airport (EKBI)
Time Latitude Longitude Altitude Speed Heading
2026-05-08 06:15 52.82631 -1.34535 321 ft 0 kts 268°
2026-05-08 06:26 52.82632 -1.34514 321 ft 2 kts 268°
2026-05-08 06:26 52.82632 -1.34489 321 ft 2 kts 283°
2026-05-08 06:26 52.82625 -1.34469 321 ft 2 kts 329°
2026-05-08 06:27 52.82611 -1.34463 321 ft 2 kts
2026-05-08 06:27 52.82596 -1.34464 321 ft 2 kts
2026-05-08 06:27 52.82586 -1.34465 321 ft 1 kts 359°
2026-05-08 06:27 52.82585 -1.34465 321 ft 0 kts 359°
2026-05-08 06:29 52.82589 -1.34465 321 ft 1 kts 359°
2026-05-08 06:29 52.82620 -1.34466 321 ft 7 kts 359°
2026-05-08 06:29 52.82686 -1.34468 321 ft 11 kts 359°
2026-05-08 06:30 52.82774 -1.34473 321 ft 9 kts 358°
2026-05-08 06:30 52.82825 -1.34450 321 ft 4 kts 56°
2026-05-08 06:30 52.82849 -1.34410 321 ft 5 kts 26°
2026-05-08 06:30 52.82888 -1.34406 321 ft 5 kts 331°
2026-05-08 06:31 52.82903 -1.34465 321 ft 6 kts 271°
2026-05-08 06:31 52.82902 -1.34554 321 ft 8 kts 269°
2026-05-08 06:31 52.82900 -1.34663 321 ft 10 kts 269°
2026-05-08 06:31 52.82898 -1.34787 321 ft 10 kts 268°
2026-05-08 06:32 52.82906 -1.34899 321 ft 9 kts 306°
2026-05-08 06:32 52.82965 -1.34928 321 ft 9 kts 359°
2026-05-08 06:32 52.83029 -1.34929 321 ft 8 kts
2026-05-08 06:32 52.83059 -1.34863 321 ft 7 kts 82°
2026-05-08 06:33 52.83062 -1.34732 321 ft 24 kts 89°
2026-05-08 06:33 52.83075 -1.34021 321 ft 99 kts 88°
2026-05-08 06:33 52.83103 -1.32496 325 ft 162 kts 89°
2026-05-08 06:33 52.83137 -1.30588 923 ft 168 kts 90°
2026-05-08 06:34 52.83169 -1.28590 1576 ft 180 kts 90°
2026-05-08 06:34 52.83203 -1.26439 2021 ft 194 kts 91°
2026-05-08 06:34 52.82938 -1.24208 2412 ft 208 kts 120°
2026-05-08 06:34 52.81903 -1.22512 2837 ft 221 kts 148°
2026-05-08 06:35 52.80526 -1.21140 3341 ft 236 kts 150°
2026-05-08 06:35 52.79075 -1.19738 3873 ft 251 kts 150°
2026-05-08 06:35 52.77568 -1.18283 4603 ft 256 kts 150°
2026-05-08 06:35 52.75917 -1.17238 5339 ft 259 kts 172°
2026-05-08 06:36 52.74119 -1.17415 6091 ft 262 kts 196°
2026-05-08 06:36 52.72522 -1.18775 6847 ft 265 kts 216°
2026-05-08 06:36 52.71050 -1.20670 7591 ft 268 kts 218°
2026-05-08 06:36 52.69586 -1.22586 8326 ft 271 kts 218°
2026-05-08 06:37 52.68111 -1.24517 9061 ft 274 kts 219°
2026-05-08 06:37 52.66615 -1.26473 9749 ft 277 kts 219°
2026-05-08 06:37 52.65057 -1.28380 10446 ft 280 kts 209°
2026-05-08 06:37 52.63174 -1.29340 11073 ft 286 kts 185°
2026-05-08 06:38 52.61211 -1.28990 11771 ft 290 kts 169°
2026-05-08 06:38 52.59240 -1.28205 12584 ft 291 kts 168°
2026-05-08 06:38 52.57284 -1.27402 13330 ft 296 kts 168°
2026-05-08 06:38 52.55275 -1.26575 14128 ft 299 kts 168°
2026-05-08 06:39 52.53268 -1.25751 14980 ft 303 kts 168°
2026-05-08 06:39 52.51209 -1.24905 15886 ft 305 kts 168°
2026-05-08 06:39 52.49152 -1.24061 16758 ft 308 kts 168°
2026-05-08 06:39 52.47041 -1.23196 17611 ft 312 kts 168°
2026-05-08 06:40 52.44944 -1.22338 18432 ft 315 kts 168°
2026-05-08 06:40 52.42825 -1.21471 19227 ft 319 kts 168°
2026-05-08 06:40 52.40639 -1.20578 19979 ft 324 kts 168°
2026-05-08 06:40 52.38452 -1.19686 20720 ft 328 kts 168°
2026-05-08 06:41 52.36214 -1.18746 21438 ft 333 kts 165°
2026-05-08 06:41 52.34023 -1.17451 22140 ft 339 kts 158°
2026-05-08 06:41 52.31903 -1.15683 22818 ft 344 kts 151°
2026-05-08 06:41 52.29916 -1.13466 23466 ft 350 kts 143°
2026-05-08 06:42 52.28062 -1.10759 24128 ft 355 kts 136°
2026-05-08 06:42 52.26442 -1.07675 24763 ft 361 kts 128°
2026-05-08 06:42 52.25056 -1.04183 25367 ft 367 kts 120°
2026-05-08 06:42 52.23969 -1.00401 25961 ft 372 kts 112°
2026-05-08 06:43 52.23199 -0.96360 26530 ft 377 kts 104°
2026-05-08 06:43 52.22773 -0.92075 27101 ft 382 kts 95°
2026-05-08 06:43 52.22725 -0.87720 27633 ft 386 kts 87°
2026-05-08 06:43 52.23057 -0.83404 28155 ft 390 kts 78°
2026-05-08 06:44 52.23793 -0.79092 28705 ft 393 kts 69°
2026-05-08 06:44 52.24731 -0.74898 29186 ft 394 kts 70°
2026-05-08 06:44 52.25650 -0.70653 29472 ft 404 kts 70°
2026-05-08 06:44 52.26608 -0.66213 29569 ft 419 kts 71°
2026-05-08 06:45 52.27592 -0.61642 29645 ft 434 kts 71°
2026-05-08 06:45 52.28619 -0.56859 29675 ft 450 kts 71°
2026-05-08 06:45 52.29674 -0.51933 29720 ft 466 kts 71°
2026-05-08 06:45 52.30761 -0.46847 29785 ft 482 kts 71°
2026-05-08 06:46 52.31878 -0.41609 29982 ft 494 kts 71°
2026-05-08 06:46 52.33012 -0.36277 30612 ft 497 kts 71°
2026-05-08 06:46 52.34129 -0.31010 31521 ft 493 kts 71°
2026-05-08 06:46 52.35121 -0.25716 32343 ft 488 kts 78°
2026-05-08 06:47 52.35648 -0.20211 32955 ft 487 kts 86°
2026-05-08 06:47 52.35728 -0.14665 33463 ft 487 kts 91°
2026-05-08 06:47 52.35697 -0.09162 33996 ft 487 kts 91°
2026-05-08 06:47 52.35657 -0.03675 34541 ft 485 kts 91°
2026-05-08 06:48 52.35614 0.01795 35021 ft 484 kts 91°
2026-05-08 06:48 52.35570 0.07288 35406 ft 483 kts 91°
2026-05-08 06:48 52.35523 0.12865 35702 ft 485 kts 91°
2026-05-08 06:48 52.35474 0.18387 36012 ft 485 kts 91°
2026-05-08 06:49 52.35423 0.23853 36333 ft 484 kts 91°
2026-05-08 06:49 52.35370 0.29342 36632 ft 484 kts 91°
2026-05-08 06:49 52.35315 0.34850 36892 ft 485 kts 91°
2026-05-08 06:49 52.35256 0.40367 37056 ft 488 kts 91°
2026-05-08 06:50 52.35131 0.51549 37093 ft 487 kts 91°
2026-05-08 06:50 52.34996 0.62581 37098 ft 486 kts 91°
2026-05-08 06:51 52.34851 0.73639 37091 ft 485 kts 92°
2026-05-08 06:51 52.34697 0.84685 37099 ft 485 kts 92°
2026-05-08 06:52 52.34531 0.95749 37091 ft 485 kts 92°
2026-05-08 06:52 52.34355 1.06820 37095 ft 485 kts 92°
2026-05-08 06:53 52.34170 1.17793 37097 ft 485 kts 92°
2026-05-08 06:53 52.33974 1.28841 37095 ft 485 kts 92°
2026-05-08 06:54 52.33769 1.39818 37097 ft 485 kts 92°
2026-05-08 06:54 52.33552 1.50850 37095 ft 485 kts 92°
2026-05-08 06:55 52.33326 1.61866 37099 ft 485 kts 92°
2026-05-08 06:55 52.33087 1.72952 37096 ft 485 kts 93°
2026-05-08 06:56 52.32839 1.84002 37093 ft 485 kts 93°
2026-05-08 06:56 52.32583 1.94945 37094 ft 484 kts 93°
2026-05-08 06:57 52.32315 2.05956 37095 ft 484 kts 93°
2026-05-08 06:57 52.32037 2.16972 37094 ft 485 kts 93°
2026-05-08 06:58 52.31748 2.28012 37097 ft 484 kts 93°
2026-05-08 06:58 52.31450 2.39027 37095 ft 484 kts 93°
2026-05-08 06:59 52.31141 2.50014 37098 ft 484 kts 93°
2026-05-08 06:59 52.30874 2.61025 37092 ft 485 kts 89°
2026-05-08 07:00 52.32005 2.71845 37092 ft 486 kts 75°
2026-05-08 07:00 52.33883 2.82455 37095 ft 487 kts 74°
2026-05-08 07:01 52.35764 2.93127 37094 ft 487 kts 74°
2026-05-08 07:01 52.37618 3.03739 37095 ft 486 kts 74°
2026-05-08 07:02 52.39463 3.14380 37098 ft 487 kts 74°
2026-05-08 07:02 52.41311 3.25119 37099 ft 486 kts 74°
2026-05-08 07:03 52.43125 3.35733 37101 ft 486 kts 74°
2026-05-08 07:03 52.44944 3.46442 37101 ft 486 kts 75°
2026-05-08 07:04 52.46748 3.57136 37105 ft 486 kts 75°
2026-05-08 07:04 52.48552 3.67893 37101 ft 487 kts 75°
2026-05-08 07:05 52.50339 3.78616 37104 ft 487 kts 75°
2026-05-08 07:05 52.52116 3.89345 37107 ft 486 kts 75°
2026-05-08 07:06 52.53872 4.00012 37107 ft 486 kts 75°
2026-05-08 07:06 52.55619 4.10694 37112 ft 486 kts 75°
2026-05-08 07:07 52.57369 4.21461 37112 ft 486 kts 75°
2026-05-08 07:07 52.59113 4.32261 37116 ft 487 kts 75°
2026-05-08 07:08 52.60841 4.43029 37119 ft 487 kts 75°
2026-05-08 07:08 52.62556 4.53789 37116 ft 487 kts 75°
2026-05-08 07:09 52.64267 4.64588 37119 ft 487 kts 75°
2026-05-08 07:09 52.65966 4.75388 37115 ft 487 kts 76°
2026-05-08 07:10 52.67659 4.86221 37114 ft 487 kts 76°
2026-05-08 07:10 52.69336 4.97014 37114 ft 487 kts 76°
2026-05-08 07:11 52.71012 5.07886 37119 ft 488 kts 76°
2026-05-08 07:11 52.72674 5.18729 37124 ft 488 kts 76°
2026-05-08 07:12 52.75077 5.29085 37122 ft 488 kts 59°
2026-05-08 07:12 52.79093 5.38211 37130 ft 488 kts 51°
2026-05-08 07:13 52.83284 5.46984 37131 ft 488 kts 51°
2026-05-08 07:13 52.87473 5.55838 37137 ft 487 kts 51°
2026-05-08 07:14 52.91614 5.64654 37148 ft 487 kts 51°
2026-05-08 07:14 52.95764 5.73539 37146 ft 487 kts 52°
2026-05-08 07:15 52.99887 5.82407 37151 ft 487 kts 52°
2026-05-08 07:15 53.04023 5.91340 37151 ft 486 kts 52°
2026-05-08 07:16 53.08137 6.00259 37147 ft 487 kts 52°
2026-05-08 07:16 53.12233 6.09174 37153 ft 487 kts 52°
2026-05-08 07:17 53.16334 6.18132 37154 ft 488 kts 52°
2026-05-08 07:17 53.20441 6.27139 37154 ft 487 kts 52°
2026-05-08 07:18 53.24497 6.36063 37155 ft 487 kts 52°
2026-05-08 07:18 53.28572 6.45062 37159 ft 487 kts 52°
2026-05-08 07:19 53.32654 6.54107 37158 ft 487 kts 52°
2026-05-08 07:19 53.37154 6.62537 37159 ft 485 kts 41°
2026-05-08 07:20 53.42123 6.70165 37154 ft 486 kts 42°
2026-05-08 07:20 53.47115 6.77846 37155 ft 487 kts 42°
2026-05-08 07:21 53.52106 6.85556 37161 ft 487 kts 42°
2026-05-08 07:21 53.57069 6.93240 37149 ft 486 kts 41°
2026-05-08 07:22 53.62242 7.00584 37158 ft 485 kts 39°
2026-05-08 07:22 53.67436 7.07913 37157 ft 485 kts 39°
2026-05-08 07:23 53.72596 7.15245 37161 ft 486 kts 39°
2026-05-08 07:23 53.77753 7.22634 37159 ft 485 kts 39°
2026-05-08 07:24 53.82906 7.30087 37167 ft 485 kts 40°
2026-05-08 07:24 53.88496 7.36345 37171 ft 484 kts 22°
2026-05-08 07:25 53.94728 7.40419 36936 ft 478 kts 15°
2026-05-08 07:25 54.01234 7.42822 36370 ft 480 kts
2026-05-08 07:26 54.04529 7.43850 36209 ft 479 kts
2026-05-08 07:26 54.07826 7.44883 36032 ft 478 kts
2026-05-08 07:26 54.11063 7.45901 35739 ft 476 kts
2026-05-08 07:26 54.14335 7.46934 35050 ft 480 kts
2026-05-08 07:27 54.17626 7.47975 34251 ft 486 kts
2026-05-08 07:27 54.20935 7.49025 33340 ft 491 kts
2026-05-08 07:27 54.24297 7.50094 32421 ft 495 kts
2026-05-08 07:27 54.27650 7.51161 31546 ft 497 kts
2026-05-08 07:28 54.31032 7.52240 30758 ft 497 kts
2026-05-08 07:28 54.34425 7.53325 30255 ft 489 kts
2026-05-08 07:28 54.37707 7.54377 29759 ft 482 kts
2026-05-08 07:28 54.40976 7.55426 29226 ft 476 kts
2026-05-08 07:29 54.44253 7.56480 28684 ft 470 kts
2026-05-08 07:29 54.47444 7.57507 28147 ft 464 kts
2026-05-08 07:29 54.50625 7.58533 27606 ft 459 kts
2026-05-08 07:29 54.53742 7.59539 27078 ft 453 kts
2026-05-08 07:30 54.56797 7.60527 26548 ft 448 kts
2026-05-08 07:30 54.59844 7.61515 26018 ft 443 kts
2026-05-08 07:30 54.62862 7.62494 25489 ft 438 kts
2026-05-08 07:30 54.65814 7.63453 24960 ft 434 kts
2026-05-08 07:31 54.68773 7.64416 24436 ft 429 kts
2026-05-08 07:31 54.71670 7.65359 23914 ft 424 kts 11°
2026-05-08 07:31 54.74570 7.66303 23388 ft 420 kts 11°
2026-05-08 07:31 54.77435 7.67237 22866 ft 416 kts 11°
2026-05-08 07:32 54.80259 7.68158 22342 ft 423 kts 11°
2026-05-08 07:32 54.83179 7.69112 21796 ft 425 kts 11°
2026-05-08 07:32 54.86052 7.70053 21256 ft 422 kts 11°
2026-05-08 07:32 54.88956 7.71005 20706 ft 417 kts 11°
2026-05-08 07:33 54.91772 7.71930 20174 ft 412 kts 11°
2026-05-08 07:33 54.94566 7.72849 19641 ft 408 kts 11°
2026-05-08 07:33 54.97303 7.73850 19104 ft 404 kts 16°
2026-05-08 07:33 54.99907 7.75564 18572 ft 399 kts 26°
2026-05-08 07:34 55.02264 7.78027 18041 ft 395 kts 37°
2026-05-08 07:34 55.04394 7.80967 17495 ft 392 kts 40°
2026-05-08 07:34 55.06499 7.83978 16945 ft 389 kts 40°
2026-05-08 07:34 55.08579 7.86965 16289 ft 389 kts 40°
2026-05-08 07:35 55.10640 7.89931 15696 ft 387 kts 40°
2026-05-08 07:35 55.12708 7.92913 15149 ft 384 kts 40°
2026-05-08 07:35 55.14759 7.95874 14627 ft 380 kts 40°
2026-05-08 07:35 55.16794 7.98815 14108 ft 376 kts 40°
2026-05-08 07:36 55.18792 8.01710 13594 ft 372 kts 40°
2026-05-08 07:36 55.20759 8.04562 13087 ft 368 kts 40°
2026-05-08 07:36 55.22698 8.07378 12578 ft 365 kts 40°
2026-05-08 07:36 55.24641 8.10204 12067 ft 361 kts 40°
2026-05-08 07:37 55.26573 8.13017 11557 ft 358 kts 40°
2026-05-08 07:37 55.28459 8.15767 11051 ft 355 kts 40°
2026-05-08 07:37 55.30347 8.18523 10674 ft 347 kts 41°
2026-05-08 07:37 55.32179 8.21199 10610 ft 331 kts 41°
2026-05-08 07:38 55.33907 8.23727 10521 ft 317 kts 41°
2026-05-08 07:38 55.35569 8.26164 10402 ft 305 kts 41°
2026-05-08 07:38 55.37170 8.28513 10272 ft 294 kts 41°
2026-05-08 07:38 55.38727 8.30799 10137 ft 284 kts 41°
2026-05-08 07:39 55.40202 8.32967 10018 ft 274 kts 41°
2026-05-08 07:39 55.41649 8.35097 9812 ft 267 kts 41°
2026-05-08 07:39 55.43087 8.37217 9446 ft 268 kts 41°
2026-05-08 07:39 55.44512 8.39321 9089 ft 267 kts 42°
2026-05-08 07:40 55.45664 8.41837 8692 ft 264 kts 67°
2026-05-08 07:40 55.46303 8.44894 8314 ft 265 kts 73°
2026-05-08 07:40 55.46876 8.47984 7922 ft 265 kts 73°
2026-05-08 07:40 55.47444 8.51068 7536 ft 266 kts 73°
2026-05-08 07:41 55.48019 8.54199 7148 ft 267 kts 73°
2026-05-08 07:41 55.48587 8.57286 6995 ft 258 kts 73°
2026-05-08 07:41 55.49139 8.60296 6986 ft 256 kts 73°
2026-05-08 07:41 55.49683 8.63274 6986 ft 255 kts 73°
2026-05-08 07:42 55.50227 8.66248 6985 ft 254 kts 74°
2026-05-08 07:42 55.50769 8.69224 6986 ft 254 kts 74°
2026-05-08 07:42 55.51294 8.72106 6974 ft 254 kts 74°
2026-05-08 07:42 55.51820 8.74998 6986 ft 255 kts 74°
2026-05-08 07:43 55.52368 8.78017 6978 ft 255 kts 74°
2026-05-08 07:43 55.52904 8.80976 6985 ft 255 kts 74°
2026-05-08 07:43 55.53442 8.83949 6979 ft 255 kts 74°
2026-05-08 07:43 55.53990 8.86985 6985 ft 255 kts 74°
2026-05-08 07:44 55.54530 8.89976 6965 ft 255 kts 74°
2026-05-08 07:44 55.55068 8.92967 6983 ft 255 kts 74°
2026-05-08 07:44 55.55606 8.95959 6820 ft 258 kts 74°
2026-05-08 07:44 55.56149 8.98985 6548 ft 254 kts 74°
2026-05-08 07:45 55.56679 9.01944 6253 ft 251 kts 74°
2026-05-08 07:45 55.57209 9.04902 5934 ft 250 kts 74°
2026-05-08 07:45 55.57732 9.07836 5610 ft 250 kts 74°
2026-05-08 07:45 55.58248 9.10730 5300 ft 249 kts 74°
2026-05-08 07:46 55.58773 9.13678 5005 ft 248 kts 74°
2026-05-08 07:46 55.59288 9.16577 4697 ft 247 kts 74°
2026-05-08 07:46 55.59806 9.19493 4397 ft 246 kts 74°
2026-05-08 07:46 55.60300 9.22281 4355 ft 233 kts 74°
2026-05-08 07:47 55.60773 9.24947 4302 ft 221 kts 74°
2026-05-08 07:47 55.61219 9.27469 4269 ft 208 kts 74°
2026-05-08 07:47 55.61648 9.29893 4094 ft 203 kts 74°
2026-05-08 07:47 55.62061 9.32242 3830 ft 202 kts 74°
2026-05-08 07:48 55.62479 9.34619 3571 ft 201 kts 74°
2026-05-08 07:48 55.62896 9.36996 3316 ft 200 kts 74°
2026-05-08 07:48 55.63311 9.39359 3050 ft 200 kts 74°
2026-05-08 07:48 55.63721 9.41702 2991 ft 200 kts 74°
2026-05-08 07:49 55.64129 9.44030 2987 ft 201 kts 74°
2026-05-08 07:49 55.64540 9.46382 2988 ft 190 kts 74°
2026-05-08 07:49 55.64925 9.48591 2975 ft 184 kts 74°
2026-05-08 07:49 55.65299 9.50736 2980 ft 180 kts 74°
2026-05-08 07:50 55.65743 9.52815 2985 ft 180 kts 61°
2026-05-08 07:50 55.66545 9.54497 2986 ft 182 kts 40°
2026-05-08 07:50 55.67663 9.55561 2980 ft 184 kts 19°
2026-05-08 07:50 55.68949 9.55867 2980 ft 187 kts
2026-05-08 07:51 55.70263 9.55932 2979 ft 187 kts
2026-05-08 07:51 55.71563 9.55996 2977 ft 187 kts
2026-05-08 07:51 55.72872 9.56057 2979 ft 188 kts
2026-05-08 07:51 55.74110 9.55328 2967 ft 190 kts 321°
2026-05-08 07:52 55.74898 9.53480 2963 ft 192 kts 288°
2026-05-08 07:52 55.75065 9.51109 2971 ft 193 kts 269°
2026-05-08 07:52 55.75024 9.48747 2978 ft 192 kts 266°
2026-05-08 07:52 55.74959 9.46350 2981 ft 192 kts 265°
2026-05-08 07:53 55.74892 9.44019 2977 ft 187 kts 265°
2026-05-08 07:53 55.74825 9.41709 2917 ft 188 kts 265°
2026-05-08 07:53 55.74759 9.39422 2666 ft 183 kts 265°
2026-05-08 07:53 55.74694 9.37176 2422 ft 181 kts 265°
2026-05-08 07:54 55.74629 9.34947 2175 ft 176 kts 265°
2026-05-08 07:54 55.74567 9.32821 1944 ft 167 kts 265°
2026-05-08 07:54 55.74508 9.30830 1723 ft 158 kts 265°
2026-05-08 07:54 55.74449 9.28885 1513 ft 156 kts 265°
2026-05-08 07:55 55.74392 9.26985 1309 ft 154 kts 264°
2026-05-08 07:55 55.74330 9.25108 1099 ft 153 kts 265°
2026-05-08 07:55 55.74275 9.23237 872 ft 150 kts 265°
2026-05-08 07:55 55.74216 9.21422 666 ft 149 kts 265°
2026-05-08 07:56 55.74160 9.19597 484 ft 149 kts 265°
2026-05-08 07:56 55.74108 9.17788 287 ft 147 kts 266°
2026-05-08 07:56 55.74060 9.16129 261 ft 111 kts 266°
2026-05-08 07:56 55.74028 9.15080 261 ft 58 kts 266°
2026-05-08 07:57 55.74017 9.14683 261 ft 14 kts 267°
2026-05-08 07:57 55.74014 9.14552 261 ft 9 kts 276°
2026-05-08 07:57 55.74052 9.14501 261 ft 7 kts 354°
2026-05-08 07:57 55.74107 9.14494 261 ft 7 kts 356°
2026-05-08 07:58 55.74152 9.14489 261 ft 6 kts 356°
2026-05-08 07:58 55.74197 9.14485 261 ft 6 kts 357°
2026-05-08 07:58 55.74246 9.14480 261 ft 7 kts 357°
2026-05-08 07:58 55.74297 9.14476 261 ft 7 kts 357°
2026-05-08 07:59 55.74352 9.14470 261 ft 7 kts 356°
2026-05-08 07:59 55.74407 9.14466 261 ft 8 kts
2026-05-08 07:59 55.74439 9.14519 261 ft 7 kts 78°
2026-05-08 07:59 55.74443 9.14610 261 ft 7 kts 87°
2026-05-08 08:00 55.74445 9.14705 261 ft 7 kts 87°
2026-05-08 08:00 55.74448 9.14802 261 ft 7 kts 87°
2026-05-08 08:00 55.74461 9.14894 261 ft 7 kts 51°
2026-05-08 08:00 55.74500 9.14923 261 ft 2 kts 11°
2026-05-08 08:01 55.74516 9.14929 261 ft 2 kts 12°
2026-05-08 08:01 55.74521 9.14931 261 ft 0 kts 12°